Theta_e
283 282 282 282 282 282 282 283 284 284 284 285 286 287 287 287 287 287 287 287 288 288 287 287 287 287 287 287 286 285 284 284 284 284 284 283 283 283 282 282 282 281 281 281 280 279 279 279 279 279 279 279 278 278 278 278 278 277 277 277 277 277
284 284 283 282 283 283 283 283 283 284 284 284 285 285 284 284 285 286 286 286 287 287 286 286 287 287 286 286 285 284 284 284 284 283 283 283 283 282 282 282 281 281 281 280 280 279 279 279 279 279 278 278 278 278 277 277 277 277 277 276 277 277
284 284 283 283 282 282 283 283 284 285 285 285 285 285 285 285 285 285 286 286 286 286 286 286 286 286 286 285 284 284 284 284 283 283 283 282 282 282 282 281 281 281 281 280 280 279 279 279 278 278 278 278 278 277 277 277 277 277 276 276 276 277
285 284 284 284 283 283 283 284 283 283 285 286 286 284 284 285 285 286 286 286 286 285 286 286 286 286 285 284 284 284 283 283 283 283 282 282 282 282 282 281 281 281 281 280 279 279 279 279 278 278 278 278 277 277 277 277 276 276 275 275 275 275
285 286 286 286 285 285 284 284 284 285 285 285 285 285 285 286 286 287 286 286 285 285 286 286 285 285 285 284 284 284 284 283 283 282 282 282 281 281 282 281 281 281 280 280 280 279 279 279 278 278 278 278 277 277 277 277 276 276 275 275 275 275
286 286 286 287 286 286 286 285 285 285 285 286 286 285 286 285 286 286 285 285 285 285 285 285 285 284 284 284 284 284 284 284 283 282 282 282 281 281 281 281 281 280 280 280 279 279 279 278 278 278 278 278 277 277 277 276 276 276 276 275 275 274
288 289 288 288 289 289 288 287 286 285 285 284 285 285 286 286 286 285 285 286 286 285 285 284 284 284 283 284 284 284 284 283 282 282 282 281 281 281 281 281 281 280 280 280 279 279 278 278 278 277 277 277 277 277 277 276 276 276 275 275 274 275
291 292 292 292 291 290 290 289 287 286 285 285 285 285 286 286 286 286 286 285 285 285 284 284 284 284 284 284 284 284 284 284 283 281 282 282 281 280 281 280 280 280 280 280 279 279 279 278 278 277 277 277 277 277 276 276 276 275 275 274 274 274
289 290 290 290 291 290 290 290 289 288 287 286 285 285 286 286 285 286 286 285 285 285 284 284 284 285 285 285 285 285 284 284 283 282 282 282 281 280 280 280 280 280 280 280 279 279 279 278 278 277 277 277 276 276 276 275 275 275 274 274 273 273
288 288 289 289 289 290 290 291 290 289 288 288 287 285 285 285 285 285 285 286 285 285 285 285 285 285 285 285 284 284 284 284 283 282 282 281 281 280 280 280 280 280 280 280 279 279 278 278 277 277 277 276 276 276 275 275 274 274 273 273 273 273
287 288 288 288 289 289 289 290 290 291 291 289 288 286 285 285 284 285 285 285 285 285 285 285 285 285 285 284 283 283 283 283 282 282 281 281 281 281 280 280 280 279 279 279 279 278 278 278 277 277 277 276 276 275 275 274 274 273 273 272 272 272
287 287 288 288 288 288 289 289 289 290 289 290 291 290 288 283 284 285 285 285 285 286 285 285 285 284 284 283 283 283 283 282 281 281 280 280 280 280 280 279 279 279 279 278 278 278 278 278 278 279 281 280 276 276 275 274 274 273 273 272 271 271
287 287 287 288 288 288 289 289 289 289 289 289 290 290 290 284 285 285 285 285 286 286 285 284 284 284 283 283 283 282 282 281 280 280 280 279 279 280 280 280 279 279 279 278 278 277 277 277 278 281 282 282 281 277 275 274 273 273 272 272 271 271
286 286 287 287 288 288 288 288 288 288 288 288 288 289 290 288 286 286 286 286 286 285 285 284 283 283 283 282 282 282 281 281 280 279 279 279 279 279 279 279 279 279 279 279 278 277 277 277 280 282 283 283 282 279 275 274 273 272 272 272 271 271
285 286 287 287 288 288 288 288 288 287 287 287 287 288 288 288 287 286 285 286 285 284 284 283 283 283 282 281 281 281 280 280 279 279 279 279 279 279 278 279 279 278 279 278 277 277 277 277 281 283 284 284 283 281 277 273 273 272 272 272 271 271
285 286 286 287 288 288 288 288 287 287 287 287 287 286 286 286 286 285 285 284 284 283 282 282 282 282 282 280 280 280 280 279 279 279 279 279 278 278 278 278 278 278 278 277 277 277 277 276 281 283 284 284 284 282 278 273 273 272 272 272 271 272
285 285 285 286 287 287 287 287 288 287 286 286 286 286 284 284 283 284 284 283 282 281 280 281 281 281 280 279 279 279 279 279 279 278 278 278 278 278 277 277 277 277 277 277 277 277 276 276 281 284 284 284 284 283 278 272 272 272 271 272 272 272
285 285 285 286 286 286 286 286 287 286 285 286 285 285 284 283 283 283 282 281 282 280 279 278 278 278 277 278 277 278 279 278 278 278 278 278 277 278 278 277 277 277 276 276 276 276 275 275 282 284 285 285 284 283 274 272 271 271 271 271 272 272
286 286 286 286 286 286 286 287 286 285 285 285 285 284 283 282 283 283 282 281 281 280 278 277 277 277 277 277 277 277 278 278 278 278 278 277 277 277 277 276 276 276 276 276 275 275 275 274 281 284 285 285 285 281 272 271 271 271 271 271 272 272
286 286 286 286 286 286 287 287 286 285 284 284 284 283 282 282 282 281 280 280 280 279 278 279 278 279 278 278 277 278 278 278 278 278 277 277 276 276 276 276 276 276 276 275 275 275 274 273 279 284 285 285 285 278 272 271 271 271 271 272 272 273
285 285 285 285 284 286 286 286 286 285 284 285 284 282 282 282 281 280 278 278 278 277 277 278 279 280 278 278 278 277 277 277 277 277 276 277 277 276 276 275 275 274 274 274 274 276 274 273 278 284 284 285 285 277 272 272 272 271 272 272 272 272
284 283 283 283 284 285 285 286 286 285 284 284 284 283 283 281 280 278 277 275 274 273 275 277 278 279 278 278 277 277 277 276 275 275 275 275 275 275 274 274 274 273 273 273 273 274 274 273 275 281 284 285 284 280 274 273 272 271 272 272 272 271
282 282 282 283 283 284 285 285 284 283 283 283 283 284 284 280 277 276 275 274 273 273 274 274 276 276 276 276 276 276 275 275 275 274 273 272 272 272 272 272 272 272 271 271 271 272 272 272 274 279 284 285 285 282 278 273 273 273 272 272 272 272
281 281 281 281 282 282 283 283 281 281 282 282 282 284 283 279 276 275 274 275 274 273 273 273 275 275 275 274 274 274 273 273 273 273 272 271 271 271 271 271 270 270 269 269 270 270 271 273 276 277 283 284 285 283 280 275 274 274 273 272 272 272
278 278 278 279 279 280 280 279 278 279 281 281 282 284 282 278 276 276 275 274 274 273 273 273 274 274 274 274 274 274 273 272 272 272 272 271 270 270 270 269 269 268 268 267 268 269 270 271 275 279 280 284 284 284 281 279 276 278 274 272 271 271
277 276 276 276 277 277 277 277 276 277 278 278 281 283 282 281 278 276 275 274 273 273 273 273 273 273 273 273 273 273 272 271 271 271 271 271 270 270 269 268 268 267 267 267 268 268 269 271 273 277 281 282 284 284 283 281 279 279 274 273 272 272
274 274 274 274 275 275 275 276 275 275 275 276 278 279 281 282 279 277 276 275 273 273 273 272 273 272 272 273 273 272 271 270 270 270 270 270 270 270 269 268 268 268 268 268 268 268 268 269 271 273 278 281 283 284 283 281 280 280 278 273 272 273
273 272 272 272 273 273 274 274 274 273 273 274 275 278 282 280 279 278 278 277 274 273 272 272 272 272 272 272 273 272 272 270 270 270 270 270 270 270 270 269 268 269 269 268 267 267 268 269 270 271 274 278 281 282 283 281 280 280 278 275 273 275
270 270 270 270 271 271 272 272 272 272 272 273 274 278 278 276 276 277 277 277 276 274 272 272 272 272 272 272 272 272 271 271 270 270 269 269 269 269 269 269 269 269 269 268 268 267 268 268 269 270 272 275 277 279 280 280 278 279 278 274 274 275
268 268 268 268 269 270 270 270 270 270 271 272 274 275 274 273 273 274 276 277 277 274 272 272 271 271 271 271 272 271 271 271 271 270 269 269 269 269 269 269 268 268 269 268 269 267 267 268 268 269 271 273 276 277 278 278 276 276 275 273 273 273
267 267 267 267 268 268 268 268 268 269 270 271 272 271 270 270 271 272 273 275 276 275 273 272 272 271 271 271 271 272 272 271 271 271 271 272 272 272 271 270 270 270 271 270 269 268 267 268 268 269 274 274 277 276 276 276 275 275 273 274 274 268
265 265 265 265 266 266 266 266 267 268 269 269 269 268 267 268 269 269 271 273 275 275 273 271 271 271 271 271 270 270 271 273 275 273 272 271 274 276 276 275 272 272 272 271 271 271 269 268 269 274 276 277 279 280 280 279 279 277 274 275 274 269
264 264 263 264 264 264 264 264 265 265 266 266 266 266 266 267 267 268 270 272 273 274 273 272 271 271 270 270 270 270 270 270 272 276 277 275 275 276 277 277 277 276 276 273 271 272 275 273 274 276 277 278 279 280 280 280 279 277 277 276 270 266
262 262 262 262 262 262 262 262 263 263 263 264 264 265 266 267 268 268 269 271 273 274 274 273 272 271 270 270 270 270 269 269 269 270 275 277 276 277 277 277 278 277 277 277 274 272 272 274 276 277 278 278 279 280 280 279 278 278 278 276 273 264
261 261 261 261 261 261 261 261 261 262 262 263 264 265 265 266 267 268 269 271 272 273 273 272 272 271 270 269 269 269 269 269 269 268 269 272 277 278 277 278 278 278 278 278 277 276 275 275 276 278 278 279 279 280 279 279 279 278 278 276 268 263
260 260 259 259 259 259 259 259 260 261 261 262 263 263 264 264 265 266 267 269 271 273 274 273 272 271 271 270 270 269 269 269 269 269 269 269 270 272 275 277 278 278 278 278 278 277 276 277 277 278 279 279 279 279 279 279 276 278 278 272 264 263
258 258 259 259 259 259 259 259 259 260 261 261 262 263 264 264 265 266 268 269 270 271 273 274 273 272 271 270 270 269 269 269 269 269 269 269 269 269 269 270 273 277 279 276 277 278 277 277 278 279 279 279 280 279 279 279 274 273 271 267 263 263
257 257 258 258 258 258 258 258 259 260 260 261 262 264 265 265 266 266 267 268 270 272 274 274 274 272 271 270 270 270 270 269 269 269 269 270 270 270 269 270 272 273 277 279 278 278 278 278 279 279 279 279 280 279 279 272 271 269 265 263 262 261
Wind_Speed
4 4 4 3 4 4 5 4 4 5 6 7 10 14 13 13 12 12 11 12 12 12 15 15 14 13 13 11 10 10 12 13 13 13 12 8 10 11 11 12 12 12 12 11 11 10 11 9 10 9 9 9 9 8 8 8 8 8 7 6 7 6
4 4 5 5 7 7 6 6 5 7 6 6 8 7 6 6 10 10 12 13 12 12 10 11 12 12 12 11 10 11 13 13 11 11 10 13 10 11 12 12 13 13 13 12 12 12 11 11 10 10 10 10 9 9 9 8 10 9 9 7 6 6
5 3 3 4 4 4 5 6 9 8 7 9 9 11 10 11 12 11 14 12 14 13 14 15 14 15 12 9 11 12 12 10 10 11 10 7 11 12 13 13 13 13 13 13 13 13 13 13 12 10 10 10 10 9 9 9 10 10 8 8 8 6
4 3 2 3 4 6 7 6 5 8 11 11 9 8 11 13 13 15 16 13 13 14 15 15 14 13 12 13 13 13 11 11 12 11 9 12 11 12 13 14 12 12 13 13 13 12 12 12 12 12 11 12 11 10 8 10 11 10 9 9 9 8
6 5 4 5 6 7 6 7 9 10 10 9 11 13 15 14 16 14 12 12 13 16 15 12 11 11 13 14 13 14 14 13 12 11 13 12 11 11 12 13 13 13 13 13 13 13 12 13 12 11 12 12 13 13 11 11 12 12 12 12 11 10
5 6 6 6 6 8 9 8 8 9 10 12 10 14 17 13 13 12 11 13 14 15 12 12 11 10 12 13 14 15 15 13 12 11 13 12 11 12 11 12 13 13 14 14 13 13 13 13 12 11 12 13 13 13 13 12 12 11 11 11 11 10
9 7 7 8 9 8 7 7 9 10 12 10 12 15 15 12 11 10 12 14 15 13 13 14 13 14 14 15 14 16 15 14 12 11 13 12 13 13 12 12 12 14 15 15 16 15 14 14 13 12 12 11 10 11 12 12 12 11 11 10 10 9
18 20 19 15 12 11 12 11 9 10 11 13 13 14 13 14 13 13 13 12 13 13 15 15 13 16 18 19 18 18 16 15 13 12 12 13 14 13 13 14 13 15 16 15 16 16 16 15 14 14 14 13 11 10 10 11 11 11 10 9 9 9
19 18 19 18 17 15 11 10 12 12 12 13 10 10 10 9 8 12 13 15 16 15 16 16 17 18 18 19 18 15 13 14 13 14 14 13 14 14 14 15 16 14 16 16 15 16 16 16 15 14 13 12 12 12 11 11 10 9 9 8 9 8
17 17 17 17 17 17 16 13 11 12 13 14 12 8 9 9 8 10 12 13 14 15 16 16 17 17 18 16 13 13 13 13 13 14 13 12 14 15 16 16 16 14 12 14 14 14 13 14 14 14 13 13 13 12 11 11 11 10 9 8 8 8
16 16 16 16 17 18 18 17 17 16 15 12 11 9 9 8 6 10 11 12 13 16 16 15 14 14 13 12 13 13 14 15 15 13 13 13 13 12 13 12 12 13 12 11 12 13 12 13 13 13 13 13 13 11 11 11 11 11 11 10 9 8
15 15 16 17 17 18 18 17 17 17 17 18 17 14 11 5 9 11 11 12 15 16 14 13 11 10 10 12 14 15 15 14 13 13 14 14 13 12 12 12 13 14 15 14 13 13 13 12 11 13 21 17 14 14 11 10 11 11 11 11 10 8
15 16 17 18 18 19 17 17 16 16 17 18 19 18 15 6 10 11 12 15 17 16 12 10 10 10 12 14 12 11 12 13 13 13 13 12 12 13 13 13 15 14 14 15 15 15 13 11 10 20 23 23 22 14 12 12 11 10 11 11 12 11
16 17 17 17 17 17 17 18 18 17 19 20 20 18 16 13 11 12 14 16 15 12 11 11 9 10 12 10 12 12 12 11 12 13 13 13 13 13 13 15 16 15 14 13 13 14 13 12 15 24 25 24 24 19 12 11 11 10 10 11 11 9
13 15 16 15 16 16 17 16 15 16 16 18 18 17 16 14 13 13 13 14 11 11 10 8 10 11 10 11 10 9 9 11 12 13 13 16 14 12 14 15 14 15 13 14 15 14 13 12 19 25 25 24 24 24 16 10 11 11 11 11 11 11
12 12 14 15 15 15 15 14 13 15 14 14 15 15 16 13 12 10 12 11 9 9 7 7 8 10 10 8 8 10 11 12 13 12 10 10 11 13 13 13 15 13 14 15 15 14 13 13 20 26 26 25 25 24 17 10 11 10 10 12 11 10
13 13 13 12 13 14 15 17 16 17 18 17 17 16 15 14 11 10 9 9 8 6 5 5 6 6 5 6 7 9 11 12 10 11 11 12 13 14 15 15 15 14 13 13 12 12 12 11 22 25 26 26 27 25 17 10 9 9 9 9 10 10
14 13 14 13 13 13 12 13 14 15 17 16 14 15 14 12 12 11 8 8 7 5 4 5 5 5 5 6 7 9 10 10 11 12 10 10 9 8 8 9 10 12 13 13 13 12 12 11 24 26 28 28 27 27 12 11 11 10 9 9 10 9
12 14 14 13 12 13 14 14 14 15 15 16 15 14 14 13 14 13 10 8 7 5 4 4 4 5 6 6 8 9 10 11 11 10 9 10 10 11 12 12 12 12 13 14 14 14 12 11 21 26 27 28 29 21 11 12 10 10 10 10 10 10
13 13 12 14 15 14 13 14 14 15 15 16 15 15 15 13 14 13 10 9 7 5 4 4 4 5 6 7 9 9 8 7 7 9 9 12 12 12 11 10 10 10 12 14 15 14 14 13 20 30 27 28 30 19 14 12 12 11 11 10 9 8
14 14 13 14 16 15 15 16 15 14 15 15 15 14 13 13 14 12 11 10 7 5 3 3 3 4 6 7 7 7 8 9 9 7 7 8 8 9 8 9 9 9 9 11 13 16 16 14 18 28 29 31 30 20 12 12 11 12 11 10 10 8
14 14 14 15 16 15 15 14 14 14 14 15 14 14 14 14 13 11 9 7 5 3 2 1 3 3 4 6 5 4 5 4 5 7 8 7 7 8 8 8 9 10 9 8 10 12 12 13 13 21 31 30 31 27 15 11 12 13 13 11 11 10
12 13 14 13 14 15 14 13 13 14 14 13 14 15 14 12 11 10 9 7 5 3 2 1 2 3 2 3 4 4 4 5 6 7 7 7 6 7 7 9 8 9 8 8 8 8 10 10 13 17 30 30 30 27 22 11 12 11 12 12 11 10
14 15 15 13 13 13 12 13 15 15 13 12 14 15 12 10 10 9 8 8 5 3 1 1 1 2 3 4 6 6 5 4 5 6 7 6 7 8 8 7 7 7 7 6 7 6 8 9 15 14 27 30 32 29 28 14 12 12 12 11 10 9
16 15 16 15 13 13 13 14 15 15 13 13 14 13 11 10 9 9 8 7 6 4 2 1 3 4 4 5 6 7 6 5 6 6 7 8 8 9 9 8 7 7 7 6 6 5 6 7 10 16 17 28 30 30 26 23 14 21 11 11 12 12
15 16 16 15 13 13 13 13 15 15 15 16 14 13 13 12 11 9 9 8 7 4 3 3 4 5 5 6 7 7 7 6 6 6 7 8 9 9 9 8 7 7 8 9 8 7 6 6 8 12 16 18 28 28 26 26 22 23 12 10 9 9
17 18 18 16 14 13 13 12 14 18 19 15 14 17 15 13 11 10 10 10 8 6 5 4 5 6 6 7 8 9 8 8 8 8 7 8 8 9 10 9 9 10 10 9 9 6 5 6 8 6 13 19 23 27 25 24 24 23 21 12 7 8
15 17 19 20 17 13 12 12 11 17 19 16 15 16 12 12 13 13 13 11 8 7 5 6 6 6 7 8 7 8 8 10 11 10 9 9 9 10 10 10 10 10 10 10 8 8 7 7 7 9 9 12 18 20 24 24 23 22 21 15 10 14
14 17 19 21 20 14 12 14 13 14 16 16 15 15 14 16 16 15 14 13 10 7 6 8 6 6 6 7 7 7 7 8 9 9 10 10 11 11 10 11 11 11 11 11 11 8 9 8 11 11 11 10 10 10 14 16 15 21 19 13 10 13
15 16 17 19 20 14 13 14 16 16 15 16 15 12 14 17 18 17 17 15 11 8 7 8 9 8 7 8 9 9 9 9 10 11 13 14 15 14 13 12 13 14 14 13 12 11 10 12 12 13 14 15 13 12 11 11 11 12 10 10 10 9
17 17 16 19 18 16 15 17 16 17 16 14 13 13 16 18 19 19 20 17 12 11 8 8 8 8 9 8 9 10 11 13 14 14 11 11 10 12 14 14 14 13 12 12 13 15 14 12 15 17 15 15 18 15 13 13 13 10 10 14 16 10
15 16 18 18 14 14 16 16 18 14 14 11 14 13 17 19 17 18 17 16 12 11 9 8 8 8 9 8 9 9 9 10 14 12 11 11 15 18 15 12 11 11 10 11 11 13 17 19 15 17 24 25 27 28 25 20 21 20 17 21 25 14
16 16 19 19 17 15 17 17 17 17 12 12 13 14 15 17 16 15 14 14 12 12 9 9 9 9 9 9 9 9 9 8 10 19 20 15 14 17 19 19 16 16 18 13 11 11 14 8 15 24 25 28 29 29 27 26 24 25 27 27 17 11
17 17 20 19 16 18 14 17 17 15 11 11 13 15 14 15 14 15 14 12 11 12 11 10 10 9 9 9 9 9 9 10 9 9 18 23 18 19 21 20 19 18 19 21 16 12 10 15 22 26 29 30 30 30 29 27 27 28 29 27 21 12
16 15 16 16 18 16 19 17 22 18 8 11 13 14 17 15 15 14 16 12 12 13 12 11 10 10 9 10 10 10 10 10 10 11 9 13 21 22 21 23 23 22 20 22 21 22 17 17 22 28 30 30 30 31 30 29 30 30 28 27 15 10
16 17 16 15 15 20 20 21 21 17 10 12 15 15 16 17 16 17 16 14 11 11 11 10 10 10 10 10 10 10 11 11 11 10 9 8 8 11 15 20 24 23 22 23 25 23 23 23 27 30 31 32 32 32 31 29 23 28 29 21 13 12
17 16 17 18 20 19 19 22 22 16 12 14 15 16 16 17 16 15 18 27 21 14 14 12 10 10 10 10 10 11 11 11 10 9 9 10 11 11 11 10 13 20 24 19 20 25 27 26 29 30 31 33 33 33 33 30 19 18 15 11 9 10
18 18 17 18 18 18 20 21 18 12 14 15 17 17 15 13 14 14 15 13 15 13 11 12 11 10 10 10 10 10 10 9 9 10 10 10 10 10 9 9 10 10 17 26 23 26 27 28 30 30 33 32 35 34 35 19 15 13 13 13 11 10
Wind_Direction
274 258 247 232 224 226 228 242 245 233 216 203 199 202 203 197 197 200 202 200 202 203 204 202 203 206 207 205 193 185 191 194 193 191 192 168 171 173 170 173 174 177 180 178 177 176 179 178 181 177 176 176 172 170 166 159 160 162 165 169 164 169
264 250 237 231 220 215 212 208 210 225 229 221 220 219 208 202 207 205 209 209 207 208 204 209 209 210 206 201 192 195 201 200 193 190 182 186 170 175 172 173 177 177 177 180 176 176 178 180 181 179 177 176 179 170 167 166 163 164 168 167 170 165
321 307 270 266 271 248 227 215 210 207 208 222 218 211 205 207 208 203 215 205 211 205 205 205 202 207 203 200 201 202 202 197 193 193 191 156 180 173 176 177 179 177 178 176 179 180 181 180 180 181 177 179 177 176 169 162 166 165 165 162 169 173
296 309 283 253 244 245 237 233 225 219 215 214 215 218 216 212 208 209 211 208 211 209 213 209 207 203 193 198 199 204 201 199 195 188 170 185 183 175 178 178 176 177 176 177 181 183 184 184 182 180 179 181 177 175 171 169 169 167 166 167 174 176
301 301 275 247 236 245 240 227 220 224 225 217 215 210 223 215 215 212 209 209 210 214 214 211 209 201 201 202 202 203 201 199 192 180 184 185 179 181 179 178 176 174 175 177 180 181 184 185 184 184 182 184 180 177 177 176 173 172 171 176 180 176
319 317 298 278 260 247 240 230 232 234 227 220 214 221 228 219 223 219 216 216 217 214 204 207 206 202 207 207 208 206 205 199 193 183 185 182 175 180 183 176 174 172 175 178 179 182 183 184 186 186 189 186 182 180 179 176 178 177 179 178 174 172
340 308 290 286 288 285 263 241 234 230 231 217 217 225 229 223 222 218 223 222 224 215 207 207 197 199 202 208 209 212 205 199 192 187 185 177 182 182 175 178 174 175 177 182 181 180 182 185 184 185 189 191 188 184 178 178 178 179 179 178 174 172
3 0 354 345 330 311 305 292 269 251 239 230 218 224 226 219 214 212 217 219 222 221 215 211 201 204 204 207 209 208 202 199 191 185 188 184 182 179 182 177 179 182 184 183 182 181 180 180 182 185 187 187 183 183 183 180 179 177 174 171 172 172
2 358 359 356 352 343 327 313 306 301 293 287 275 258 247 237 219 218 216 216 216 217 215 209 206 207 208 208 207 202 196 196 192 186 189 185 184 180 181 185 183 186 183 184 179 182 180 178 179 182 184 184 183 183 180 178 176 170 168 170 170 170
355 356 353 352 349 343 344 333 310 290 281 276 271 253 250 251 237 235 230 227 225 223 219 213 211 210 211 209 202 196 195 191 189 192 188 180 183 185 186 184 186 184 182 182 182 181 175 176 179 181 182 182 180 179 181 178 172 166 165 163 166 168
348 346 346 345 344 344 341 338 335 331 319 297 283 271 257 245 235 240 239 238 235 232 226 220 216 216 210 199 195 196 193 192 192 187 181 185 187 184 183 180 176 173 180 180 179 176 176 179 183 181 180 177 179 179 178 176 172 168 166 165 163 163
345 343 341 342 343 341 338 336 333 331 327 324 320 310 286 246 239 239 237 234 235 236 233 229 224 215 204 198 199 198 194 190 185 183 185 186 184 179 176 175 178 179 179 176 178 179 180 183 181 182 180 178 175 175 175 173 174 171 168 163 162 161
343 343 343 341 340 337 335 331 329 328 329 330 327 320 310 273 250 244 236 237 236 235 231 226 223 208 205 206 200 196 189 187 183 183 182 180 178 178 175 174 178 182 180 181 180 179 182 182 180 179 181 180 177 173 172 172 172 170 166 168 167 171
341 341 338 335 333 333 333 331 329 330 331 330 326 319 312 294 264 256 248 243 244 237 227 219 214 208 212 198 201 195 192 181 177 180 181 177 177 178 173 179 183 180 181 179 178 180 181 181 178 180 181 179 177 173 171 169 168 168 170 170 171 168
333 332 331 331 329 328 325 323 323 326 327 324 318 315 312 301 280 266 261 256 250 244 231 215 206 211 207 203 193 182 177 181 181 180 178 183 181 167 178 184 177 182 177 176 178 181 180 181 180 182 181 179 177 174 168 170 168 169 172 171 172 171
327 326 324 321 320 320 318 320 321 321 321 318 319 322 319 313 295 275 269 271 263 251 235 219 210 210 207 191 179 173 176 179 188 184 178 168 167 178 179 178 181 178 180 180 179 179 178 178 181 182 181 179 177 172 165 167 167 170 172 172 172 173
322 321 320 320 320 320 324 326 331 331 329 331 329 328 327 320 306 293 282 279 272 257 237 221 214 214 194 183 178 177 181 181 178 177 179 177 179 179 181 181 181 182 177 176 176 176 178 179 181 182 180 180 180 176 162 160 162 164 170 173 174 175
321 320 317 316 318 320 321 320 325 329 324 324 326 327 327 325 316 305 302 291 284 266 245 216 211 196 179 177 178 183 186 183 182 179 175 173 176 177 173 179 177 174 176 176 174 174 177 176 183 182 182 180 179 173 157 162 165 168 171 173 176 178
317 319 319 319 319 321 323 326 327 327 326 328 329 331 329 332 329 325 320 306 300 283 256 222 202 191 182 181 184 191 188 181 180 177 170 172 177 176 182 182 180 178 175 174 176 175 174 172 183 183 182 182 180 167 152 163 165 168 171 177 177 178
319 319 322 322 323 324 324 327 327 328 330 331 332 334 331 335 332 326 322 314 308 286 265 232 200 195 186 185 194 192 192 185 181 178 174 177 176 181 184 175 174 178 178 176 178 177 169 173 183 184 183 183 181 161 160 167 168 170 172 172 175 174
321 322 324 326 323 326 330 328 329 332 332 333 333 330 331 334 330 327 322 314 307 289 271 245 219 205 191 194 196 187 184 183 183 172 169 178 176 178 168 171 174 175 179 183 179 175 173 175 183 185 186 183 180 162 165 168 169 168 172 170 170 172
320 321 325 325 323 327 328 327 329 333 332 331 331 330 332 332 322 311 307 308 314 309 282 247 227 217 198 192 174 173 181 165 157 167 171 173 170 168 167 172 174 173 177 174 178 183 176 175 184 189 188 183 181 166 163 169 169 176 171 172 171 165
316 317 318 322 323 326 326 328 329 328 328 327 328 327 327 321 312 309 309 310 317 321 303 287 224 205 188 167 160 151 146 162 167 162 167 162 155 156 163 170 170 170 172 171 177 181 184 180 180 191 189 188 183 168 167 171 181 177 172 173 171 175
317 316 317 320 324 320 325 329 325 320 322 323 321 320 319 317 311 308 309 309 308 309 295 261 175 148 153 139 142 149 160 159 155 164 161 155 153 160 164 164 165 166 161 163 171 180 183 187 190 187 194 191 189 175 172 167 181 176 171 172 175 177
316 316 315 318 320 322 322 326 318 315 319 317 314 316 317 312 307 304 301 298 294 286 253 199 167 169 156 160 159 158 162 158 160 167 162 159 158 162 164 167 165 161 161 157 171 168 171 187 201 201 198 195 194 186 174 173 168 180 175 176 175 179
310 312 312 312 315 318 321 322 318 314 317 313 320 316 312 308 300 294 290 284 274 267 237 200 181 172 176 170 162 158 155 163 171 173 178 171 167 167 167 172 167 166 168 171 179 177 169 179 198 211 207 198 195 193 180 178 177 180 173 176 175 168
310 311 307 307 311 315 316 319 317 316 310 313 322 315 306 304 302 293 283 276 266 248 240 217 200 185 182 180 169 169 164 167 169 175 187 175 181 178 178 180 176 180 180 181 181 148 157 171 185 201 210 207 201 197 186 182 181 184 177 175 167 163
307 304 304 306 308 312 312 311 315 309 304 312 315 305 308 315 309 299 285 276 260 247 221 216 220 203 190 183 186 184 179 174 179 181 181 185 189 188 186 181 183 184 184 185 125 160 158 166 165 185 195 203 203 201 193 186 186 186 179 170 166 165
303 302 303 304 303 309 309 307 306 299 302 305 305 308 323 321 312 300 290 279 267 249 222 222 215 208 206 193 188 186 182 185 185 186 186 190 189 189 190 188 185 187 189 186 184 162 164 162 180 183 186 189 192 196 191 184 185 185 174 165 166 167
298 298 300 298 297 307 309 303 301 300 300 300 302 312 315 309 303 298 291 282 273 253 230 229 220 206 203 204 195 189 189 194 193 194 196 190 192 187 193 189 188 192 191 189 179 173 178 188 191 189 186 186 183 182 178 170 165 174 162 154 160 155
300 297 297 292 295 304 303 299 297 296 295 299 308 317 310 300 296 294 289 284 272 259 237 230 221 212 210 204 206 213 202 190 192 203 211 215 202 198 190 190 200 198 193 182 179 175 187 188 196 200 186 180 179 173 168 164 168 156 146 163 153 127
290 293 293 289 293 299 295 294 291 289 294 308 310 309 300 295 293 288 282 280 273 262 245 231 229 220 217 212 209 209 223 229 218 208 204 208 208 214 214 208 205 194 182 187 196 187 185 193 194 172 179 183 181 180 174 165 166 163 156 154 147 136
291 292 289 289 295 292 291 289 288 288 295 308 299 298 291 287 286 281 279 278 274 266 250 236 232 224 217 216 214 212 212 212 222 224 222 216 208 210 214 213 211 199 197 189 183 191 200 181 170 177 180 181 182 179 175 171 162 150 153 149 136 132
292 291 289 292 293 291 289 286 283 277 295 300 292 288 281 279 278 280 278 275 275 272 258 241 235 226 219 220 212 212 212 212 213 222 225 222 214 211 212 214 211 205 199 198 189 173 182 178 175 176 180 180 179 179 177 169 155 155 156 157 146 136
287 284 284 287 290 291 290 286 283 286 308 295 293 289 285 282 280 279 279 276 272 271 260 249 238 231 223 219 212 211 209 212 211 213 213 220 224 221 219 218 217 213 206 201 195 185 181 175 177 179 179 180 179 178 176 169 162 162 162 153 147 152
283 282 279 280 281 283 285 284 284 292 314 295 288 281 275 275 275 274 275 277 271 268 264 252 241 234 229 220 218 214 211 213 212 213 203 195 197 219 224 222 218 213 209 209 202 191 183 181 180 182 179 180 179 176 173 168 168 168 168 155 156 158
281 277 278 280 282 281 279 278 281 296 301 286 279 272 267 266 267 268 271 271 269 266 264 258 245 235 229 223 217 216 213 215 212 207 203 197 200 201 204 202 212 215 211 204 201 198 186 183 184 183 180 179 177 175 170 164 163 170 162 140 146 154
281 281 282 283 280 276 274 273 279 287 280 276 271 266 271 286 290 287 285 288 287 282 271 257 248 231 226 222 220 215 214 212 205 205 206 205 204 205 201 202 200 200 208 203 198 195 191 187 184 181 180 178 176 172 168 165 171 161 155 157 159 155